Lamar, CO

3:35 AM MST on January 18, 2018 (GMT -0700)
Lamar Municipal

Weather History for KLAA - February, 2012

Change the Weather History Date:

Thursday, February 9, 2012

  Actual Average Record
Temperature  
Mean Temperature 36 °F 32 °F  
Max Temperature 46 °F 48 °F 79 °F (1976)
Min Temperature 26 °F 16 °F -22 °F (2011)
Degree Days  
Heating Degree Days 29 33  
Month to date heating degree days 283 302  
Since 1 July heating degree days 3611 3733  
Cooling Degree Days 0 0  
Month to date cooling degree days 0 0  
Year to date cooling degree days 0 0  
Moisture  
Dew Point 25 °F    
Average Humidity 69    
Maximum Humidity 100    
Minimum Humidity 38    
Precipitation  
Precipitation 0.00 in 0.02 in 0.09 in (1986)
Month to date precipitation 0.20  
Year to date precipitation 0.20  
Snow  
Snow 0.00 in - - ()
Month to date snowfall 0.0  
Snow Depth 0.00 in    
Sea Level Pressure  
Sea Level Pressure 30.16 in    
Wind  
Wind Speed 7 mph (West)    
Max Wind Speed 10 mph    
Max Gust Speed 13 mph    
Visibility 5 miles    
Events      
T = Trace of Precipitation, MM = Missing Value Source: NWS Daily Summary

Daily Weather History Graph

Daily Weather History Graph

Search for Another Location

Airport or City:

Trip Planner

Search our weather history database for the weather conditions in past years. The results will help you decide how hot, cold, wet, or windy it might be!

Date:

Astronomy

Feb. 09, 2012 Rise Set
Actual Time 6:48 AM MST 5:22 PM MST
Civil Twilight 6:20 AM MST 5:49 PM MST
Nautical Twilight 5:49 AM MST 6:20 PM MST
Astronomical Twilight 5:18 AM MST 6:51 PM MST
Moon 7:49 PM MST (2/9) 7:28 AM MST (2/9)
Length of Visible Light 11h 28m
Length of Day
10h 34m
Waning Gibbous, 95% of the Moon is Illuminated
Feb 9
Waning Gibbous
Feb 14
Last Quarter
Feb 21
New
Feb 29
First Quarter
Mar 8
Full

Hourly Weather History & Observations

Time (MST) Temp. Windchill Dew Point Humidity Pressure Visibility Wind Dir Wind Speed Gust Speed Precip Events Conditions
12:07 AM 26.6 °F 20.0 °F 26.6 °F 100% 30.18 in 1.2 mi East 5.8 mph - N/A   Overcast
12:12 AM 26.6 °F 18.2 °F 26.6 °F 100% 30.17 in 0.8 mi East 8.1 mph - N/A   Overcast
12:17 AM 26.6 °F 20.0 °F 26.6 °F 100% 30.17 in 1.2 mi SE 5.8 mph - N/A   Overcast
12:25 AM 26.6 °F 20.0 °F 26.6 °F 100% 30.17 in 1.5 mi ESE 5.8 mph - N/A   Overcast
12:30 AM 26.6 °F 21.2 °F 24.8 °F 93% 30.16 in 1.0 mi East 4.6 mph - N/A   Overcast
12:51 AM 26.6 °F - 26.6 °F 100% 30.15 in 1.5 mi Calm Calm - N/A   Overcast
12:53 AM 26.1 °F 21.9 °F 26.1 °F 100% 30.21 in 1.5 mi East 3.5 mph - N/A   Overcast
1:03 AM 26.6 °F 22.6 °F 24.8 °F 93% 30.16 in 1.0 mi ESE 3.5 mph - N/A   Overcast
1:12 AM 26.6 °F 21.2 °F 24.8 °F 93% 30.16 in 0.8 mi ESE 4.6 mph - N/A   Overcast
1:33 AM 26.6 °F - 24.8 °F 93% 30.15 in 1.0 mi Calm Calm - N/A   Overcast
1:49 AM 26.6 °F - 24.8 °F 93% 30.15 in 1.5 mi Calm Calm - N/A   Overcast
1:53 AM 26.1 °F - 25.0 °F 96% 30.20 in 1.8 mi Calm Calm - N/A   Overcast
2:02 AM 26.6 °F - 26.6 °F 100% 30.14 in 1.0 mi Calm Calm - N/A   Overcast
2:25 AM 26.6 °F - 24.8 °F 93% 30.14 in 1.5 mi Calm Calm - N/A   Overcast
2:35 AM 26.6 °F - 24.8 °F 93% 30.14 in 2.0 mi Calm Calm - N/A   Overcast
2:53 AM 26.1 °F 19.4 °F 25.0 °F 96% 30.19 in 3.0 mi WNW 5.8 mph - N/A   Overcast
3:20 AM 26.6 °F 19.1 °F 24.8 °F 93% 30.14 in 2.0 mi WNW 6.9 mph - N/A   Overcast
3:37 AM 26.6 °F 20.0 °F 24.8 °F 93% 30.14 in 1.2 mi WNW 5.8 mph - N/A   Overcast
3:49 AM 26.6 °F 19.1 °F 24.8 °F 93% 30.14 in 2.0 mi NW 6.9 mph - N/A   Overcast
3:53 AM 26.1 °F 17.6 °F 25.0 °F 96% 30.18 in 3.0 mi WNW 8.1 mph - N/A   Overcast
4:22 AM 26.6 °F 18.2 °F 26.6 °F 100% 30.13 in 2.5 mi NW 8.1 mph - N/A   Overcast
4:29 AM 26.6 °F 19.1 °F 24.8 °F 93% 30.14 in 4.0 mi WNW 6.9 mph - N/A   Overcast
4:53 AM 27.0 °F 19.5 °F 25.0 °F 92% 30.18 in 5.0 mi West 6.9 mph - N/A   Overcast
5:53 AM 26.1 °F 18.4 °F 25.0 °F 96% 30.19 in 5.0 mi West 6.9 mph - N/A   Overcast
6:53 AM 27.0 °F 18.7 °F 26.1 °F 96% 30.20 in 5.0 mi West 8.1 mph - N/A   Overcast
7:26 AM 26.6 °F 19.1 °F 24.8 °F 93% 30.15 in 4.0 mi West 6.9 mph - N/A   Mostly Cloudy
7:53 AM 28.0 °F 20.0 °F 26.1 °F 92% 30.21 in 5.0 mi WSW 8.1 mph - N/A   Mostly Cloudy
8:53 AM 30.9 °F 24.3 °F 26.1 °F 82% 30.20 in 6.0 mi West 6.9 mph - N/A   Haze
9:53 AM 33.1 °F 26.9 °F 26.1 °F 75% 30.18 in 8.0 mi West 6.9 mph - N/A   Mostly Cloudy
10:53 AM 36.0 °F 29.6 °F 26.1 °F 67% 30.17 in 10.0 mi West 8.1 mph - N/A   Partly Cloudy
11:53 AM 41.0 °F 36.4 °F 27.0 °F 57% 30.13 in 10.0 mi WNW 6.9 mph - N/A   Overcast
12:53 PM 44.1 °F 40.1 °F 25.0 °F 47% 30.11 in 10.0 mi West 6.9 mph - N/A   Clear
1:53 PM 45.0 °F 41.8 °F 24.1 °F 44% 30.09 in 10.0 mi West 5.8 mph - N/A   Mostly Cloudy
2:53 PM 45.0 °F 41.2 °F 23.0 °F 42% 30.10 in 10.0 mi WNW 6.9 mph - N/A   Partly Cloudy
3:53 PM 46.0 °F 42.5 °F 23.0 °F 40% 30.11 in 10.0 mi WNW 6.9 mph - N/A   Partly Cloudy
4:53 PM 45.0 °F 40.1 °F 24.1 °F 44% 30.12 in 10.0 mi NW 9.2 mph - N/A   Mostly Cloudy
5:53 PM 37.0 °F 32.4 °F 24.1 °F 59% 30.15 in 10.0 mi West 5.8 mph - N/A   Scattered Clouds
6:53 PM 30.9 °F 24.3 °F 23.0 °F 72% 30.18 in 10.0 mi West 6.9 mph - N/A   Clear
7:53 PM 28.0 °F 22.8 °F 23.0 °F 81% 30.22 in 10.0 mi West 4.6 mph - N/A   Clear
8:53 PM 28.0 °F 20.0 °F 23.0 °F 81% 30.22 in 10.0 mi West 8.1 mph - N/A   Partly Cloudy
9:53 PM 28.9 °F 22.8 °F 24.1 °F 82% 30.22 in 10.0 mi West 5.8 mph - N/A   Clear
10:53 PM 28.0 °F 20.0 °F 24.1 °F 85% 30.23 in 10.0 mi West 8.1 mph - N/A   Clear
11:53 PM 28.9 °F 20.4 °F 23.0 °F 78% 30.22 in 10.0 mi West 9.2 mph - N/A   Clear